STARLINK-32824, 62817

Orbit data source: Space-Track

STARLINK-32824, 62817 is a payload satellite owned by SpaceX/Seattle (US) in LEO that was launched on Fri, 24 Jan 2025 UTC via an FALCON 9 launch vehicle from the Air Force Western Test Range (AFWTR). Payload-class satellites include a variety of spacecraft equipped with specific instruments for various scientific and technological missions. These include communications satellites like Starlink; space stations such as the ISS; scientific satellites like the Hubble; Earth observation satellites from companies like Planet Labs, Umbra, and HawkEye 360; GPS; miniature CubeSats for education and research; and military/defense satellites.

Loading next visibility...
Identifier
62817, 2025-018M
Orbit
LEO
Last TLE update
13 hours ago
Origin
Manufacturer
SpaceX/Seattle
Mission
Operational Commercial Communications
Bus & Motor
STARLINK V2M, Unknown motor
Mass
730 kg wet, ~700 kg dry
Launch date (UTC)
2025-01-24 (3 months ago)
Launch vehicle
FALCON 9
Launch site
Air Force Western Test Range (AFWTR)
Object type
Payload
Rocket body
Debris
Shape & HBR
Box + 2 Pan, 29 m
Radar Cross Section
33.884 m², Large (>1 m²)

Expand to show TLE details & history

TLE from 13 hours ago
0 STARLINK-32824
1 62817U 25018M   25128.68087129  .00000628  00000-0  25694-4 0  9995
2 62817  53.1595 287.5076 0001301  84.8659 275.2494 15.39618421 17409
Epoch: 2025-05-08T16:20Z
Definitive object data (Epoch: 2025-05-08T16:20:27.279Z)
Latitude
-0.00005°
Longitude
175.64602°
Altitude
448.059 km
Speed
7.645 km/s
True Right ascension
19h 10m 01s
True Declination
0° 00' 00"
Sunlit
Object was in full shadow at TLE epoch
Visualization TLE readout
Latitude
31.31632°
Longitude
-33.8747°
Altitude
448.616 km
Speed
7.648 km/s
Apparent Right ascension
03h 32m 54s
Apparent Declination
-3° 14' 54"
Sunlit
Object is in daylight
Visualization observer readout
Local Sidereal Time
13:33:09
Azimuth
315.763° NNW
Elevation
-44.422°
Doppler factor
1
Orbital elements
Apogee altitude
448.382 km
Perigee altitude
446.606 km
Semi-major axis
6,825.631 km
Eccentricity
0.0001301
Inclination
53.1595°
RAAN
287.5076°
Arg. of periapsis
84.8659°
True anomaly
275.23455°
Mean anomaly
275.2494°
Eccentric anomaly
275.24198°
Mean motion
3.84883 °/min
BSTAR
0.000025694
Orbital period
93.53 mins
Loading maneuver chart data...
Loading SW <> Apogee altitude chart data...
Loading historical data...
Loading historical data...
Loading historical data...
Loading historical data...
Loading historical data...
Loading historical data...
Loading historical data...

STARLINK-32824 Visibility forecast

Observer location: undefined°, undefined°

Span
Click to sort rows by Start time (UTC) header in descending order
Start Az.
Max El. time (UTC)
Max El. Az.
Max El.
End time (UTC)
End Az.
6 mins2025-05-09 12:45:29.707Z204.327° SW2025-05-09 12:48:29.707Z125.922° SE34.224°2025-05-09 12:51:29.707Z62.972° ENE
4 mins2025-05-09 14:24:29.707Z298.505° NW2025-05-09 14:25:29.707Z324.318° NNW22.681°2025-05-09 14:28:29.707Z27.437° NE
5 mins2025-05-09 19:18:29.707Z331.81° NNW2025-05-09 19:20:29.707Z21.452° NNE30.831°2025-05-09 19:23:29.707Z99.081° ESE
4 mins2025-05-09 20:56:29.707Z264.779° W2025-05-09 20:57:29.707Z241.055° WSW21.652°2025-05-09 21:00:29.707Z176.832° S
|